User: anonymous   Login
Location: Cranbrook Institute of Science
(42.5830°N, 83.2450°W)
Time: 13:12:09
(UTC-05:00)
Language:

CZ-4B R/B - Orbit

View from above orbital plane
View from above orbital plane
View from above satellite
View from above satellite

Ground track
Ground track

The orbit data is extracted from the following two-line orbital elements,

1 29093U 06015B   17019.46482959  .00004333  00000-0  10715-3 0  9990
2 29093  97.4872 127.0452 0067184 131.3393 229.3660 15.38690149594655
Epoch (UTC): 19 January 2017 11:09:21
Eccentricity: 0.0067184
inclination: 97.4872°
perigee height: 404 km
apogee height: 496 km
right ascension of ascending node: 127.0452°
argument of perigee: 131.3393°
revolutions per day: 15.38690149
mean anomaly at epoch: 229.3660°
orbit number at epoch: 59465

The dashed part of the orbit path shows where the satellite is in the earth's shadow,  

DLR